2020-051E (45943 NORAD) Tracking and Keplerian Element Data

This shows tracking and keplerian element data for the satellite.

Feedback or suggestion? Click here.




ElementValue
Catalog45943
Name2020-051E
Epoch Orbit458
Epoch Day237.20808522
Epoch Year2020
RAAN311.3105
Inclination97.5744
Eccentricity0.004002
Argument of Perigee165.3214
Mean Anonmoly252.3053
Mean Motion15.26691467
Decay Rate1.296E-05
L11 45943U 20051E 20237.20808522 .00001296 00000-0 51254-4 0 9993
L22 45943 97.5744 311.3105 0040020 165.3214 252.3053 15.26691467 4589

Live tracking and technical data element details for 2020-051E (NORAD 45943). 2020-051E can be tracked NOW for your location showing map with azimuth and elevation plus other details from your city location.

Track the satellite on the map from your city or location and see movement details for azimuth, elevation, latitude, longitude, range, height, and movement on the map or in text.







IsCatalogInMostPopularTable: catalog: 45943, numindb: 25
Update: records affected: 1



GetName: 45943 2020-051E

Hit Count: updated at: Thu, 03 Dec 2020 07:54:59 GMT